Time,TemperatureF,DewpointF,PressureIn,WindDirection,WindDirectionDegrees,WindSpeedMPH,WindSpeedGustMPH,Humidity,HourlyPrecipIn,Conditions,Clouds,dailyrainin,SoftwareType,DateUTC
2013-01-03 00:00:00,31.9,28.8,30.19,N/A,-737280,0.0,-999.0,88,0.00,,,0.00,Wunderground v.1.15,2013-01-03 05:00:00,
2013-01-03 00:05:00,31.9,28.8,30.19,N/A,-737280,0.0,-999.0,88,0.00,,,0.00,Wunderground v.1.15,2013-01-03 05:05:00,
2013-01-03 00:10:00,31.9,29.0,30.19,West,281,0.0,0.0,89,0.00,,,0.00,Wunderground v.1.15,2013-01-03 05:10:00,
2013-01-03 00:15:00,31.9,28.8,30.18,West,281,0.0,0.0,88,0.00,,,0.00,Wunderground v.1.15,2013-01-03 05:15:00,
2013-01-03 00:20:00,31.9,28.8,30.18,West,281,0.0,0.0,88,0.00,,,0.00,Wunderground v.1.15,2013-01-03 05:20:00,
2013-01-03 00:25:00,31.9,28.8,30.19,West,281,0.0,0.0,88,0.00,,,0.00,Wunderground v.1.15,2013-01-03 05:25:00,
2013-01-03 00:30:00,31.9,29.0,30.18,West,281,0.0,0.0,89,0.00,,,0.00,Wunderground v.1.15,2013-01-03 05:30:00,
2013-01-03 00:35:00,31.9,29.0,30.18,West,281,0.0,0.0,89,0.00,,,0.00,Wunderground v.1.15,2013-01-03 05:35:00,
2013-01-03 00:40:00,31.9,29.0,30.18,West,281,0.0,0.0,89,0.00,,,0.00,Wunderground v.1.15,2013-01-03 05:40:00,
2013-01-03 00:45:00,31.9,28.8,30.19,N/A,-737280,0.0,-999.0,88,0.00,,,0.00,Wunderground v.1.15,2013-01-03 05:45:00,
2013-01-03 00:50:00,31.9,28.8,30.19,West,281,0.0,0.0,88,0.00,,,0.00,Wunderground v.1.15,2013-01-03 05:50:00,
2013-01-03 00:55:00,31.9,29.0,30.19,N/A,-737280,0.0,-999.0,89,0.00,,,0.00,Wunderground v.1.15,2013-01-03 05:55:00,
2013-01-03 01:00:00,31.9,29.0,30.18,West,281,0.0,0.0,89,0.00,,,0.00,Wunderground v.1.15,2013-01-03 06:00:00,
2013-01-03 01:05:00,31.9,29.0,30.19,West,281,0.0,0.0,89,0.00,,,0.00,Wunderground v.1.15,2013-01-03 06:05:00,
2013-01-03 01:10:00,31.9,29.0,30.19,West,281,0.0,0.0,89,0.00,,,0.00,Wunderground v.1.15,2013-01-03 06:10:00,
2013-01-03 01:15:00,31.9,29.0,30.19,N/A,-737280,0.0,-999.0,89,0.00,,,0.00,Wunderground v.1.15,2013-01-03 06:15:00,
2013-01-03 01:20:00,31.9,29.0,30.19,West,281,0.0,0.0,89,0.00,,,0.00,Wunderground v.1.15,2013-01-03 06:20:00,
2013-01-03 01:25:00,31.9,29.3,30.18,N/A,-737280,0.0,-999.0,90,0.00,,,0.00,Wunderground v.1.15,2013-01-03 06:25:00,
2013-01-03 01:30:00,31.8,29.2,30.18,West,281,0.0,0.0,90,0.00,,,0.00,Wunderground v.1.15,2013-01-03 06:30:00,
2013-01-03 01:35:00,31.8,29.2,30.18,N/A,-737280,0.0,-999.0,90,0.00,,,0.00,Wunderground v.1.15,2013-01-03 06:35:00,
2013-01-03 01:40:00,31.8,29.2,30.18,West,281,0.0,0.0,90,0.00,,,0.00,Wunderground v.1.15,2013-01-03 06:40:00,
2013-01-03 01:45:00,31.8,29.2,30.18,N/A,-737280,0.0,-999.0,90,0.00,,,0.00,Wunderground v.1.15,2013-01-03 06:45:00,
2013-01-03 01:50:00,31.8,29.2,30.18,WNW,282,0.0,0.0,90,0.00,,,0.00,Wunderground v.1.15,2013-01-03 06:50:00,
2013-01-03 01:55:00,31.8,29.2,30.18,N/A,-737280,0.0,-999.0,90,0.00,,,0.00,Wunderground v.1.15,2013-01-03 06:55:00,
2013-01-03 02:00:00,31.8,29.2,30.18,West,281,0.0,0.0,90,0.00,,,0.00,Wunderground v.1.15,2013-01-03 07:00:00,
2013-01-03 02:05:00,31.8,29.2,30.18,West,281,0.0,0.0,90,0.00,,,0.00,Wunderground v.1.15,2013-01-03 07:05:00,
2013-01-03 02:10:00,31.8,29.2,30.18,N/A,-737280,0.0,-999.0,90,0.00,,,0.00,Wunderground v.1.15,2013-01-03 07:10:00,
2013-01-03 02:15:00,31.8,29.2,30.18,West,281,0.0,0.0,90,0.00,,,0.00,Wunderground v.1.15,2013-01-03 07:15:00,
2013-01-03 02:20:00,31.8,29.2,30.18,West,281,0.0,0.0,90,0.00,,,0.00,Wunderground v.1.15,2013-01-03 07:20:00,
2013-01-03 02:25:00,31.8,29.2,30.18,West,281,0.0,0.0,90,0.00,,,0.00,Wunderground v.1.15,2013-01-03 07:25:00,
2013-01-03 02:30:00,31.8,29.2,30.19,N/A,-737280,0.0,-999.0,90,0.00,,,0.00,Wunderground v.1.15,2013-01-03 07:30:00,
2013-01-03 02:35:00,31.8,29.5,30.19,West,281,0.0,0.0,91,0.00,,,0.00,Wunderground v.1.15,2013-01-03 07:35:00,
2013-01-03 02:40:00,31.8,29.5,30.19,N/A,-737280,0.0,-999.0,91,0.00,,,0.00,Wunderground v.1.15,2013-01-03 07:40:00,
2013-01-03 02:45:00,31.8,29.5,30.19,West,281,0.0,0.0,91,0.00,,,0.00,Wunderground v.1.15,2013-01-03 07:45:00,
2013-01-03 02:50:00,31.8,29.5,30.19,N/A,-737280,0.0,-999.0,91,0.00,,,0.00,Wunderground v.1.15,2013-01-03 07:50:00,
2013-01-03 02:55:00,31.6,29.3,30.19,West,281,0.0,0.0,91,0.00,,,0.00,Wunderground v.1.15,2013-01-03 07:55:00,
2013-01-03 03:00:00,31.6,29.3,30.18,West,281,0.0,0.0,91,0.00,,,0.00,Wunderground v.1.15,2013-01-03 08:00:00,
2013-01-03 03:05:00,31.6,29.3,30.19,N/A,-737280,0.0,-999.0,91,0.00,,,0.00,Wunderground v.1.15,2013-01-03 08:05:00,
2013-01-03 03:10:00,31.6,29.3,30.19,West,281,0.0,0.0,91,0.00,,,0.00,Wunderground v.1.15,2013-01-03 08:10:00,
2013-01-03 03:15:00,31.6,29.5,30.19,N/A,-737280,0.0,-999.0,92,0.00,,,0.00,Wunderground v.1.15,2013-01-03 08:15:00,
2013-01-03 03:20:00,31.5,29.4,30.19,West,281,0.0,0.0,92,0.00,,,0.00,Wunderground v.1.15,2013-01-03 08:20:00,
2013-01-03 03:25:00,31.5,29.4,30.19,West,270,0.0,-999.0,92,0.00,,,0.00,Wunderground v.1.15,2013-01-03 08:25:00,
2013-01-03 03:30:00,31.5,29.4,30.19,West,281,0.0,0.0,92,0.00,,,0.00,Wunderground v.1.15,2013-01-03 08:30:00,
2013-01-03 03:35:00,31.3,29.5,30.18,West,281,0.0,3.0,93,0.00,,,0.00,Wunderground v.1.15,2013-01-03 08:35:00,
2013-01-03 03:40:00,31.3,29.5,30.18,West,281,1.0,1.0,93,0.00,,,0.00,Wunderground v.1.15,2013-01-03 08:40:00,
2013-01-03 03:45:00,31.2,29.4,30.19,N/A,-737280,0.0,-999.0,93,0.00,,,0.00,Wunderground v.1.15,2013-01-03 08:45:00,
2013-01-03 03:50:00,31.2,29.7,30.18,West,281,0.0,0.0,94,0.00,,,0.00,Wunderground v.1.15,2013-01-03 08:50:00,
2013-01-03 03:55:00,31.2,29.7,30.19,N/A,-737280,0.0,-999.0,94,0.00,,,0.00,Wunderground v.1.15,2013-01-03 08:55:00,
2013-01-03 04:00:00,31.2,29.7,30.19,West,281,0.0,0.0,94,0.00,,,0.00,Wunderground v.1.15,2013-01-03 09:00:00,
2013-01-03 04:05:00,31.2,29.7,30.19,N/A,-737280,0.0,-999.0,94,0.00,,,0.00,Wunderground v.1.15,2013-01-03 09:05:00,
2013-01-03 04:10:00,31.2,29.7,30.18,West,281,0.0,0.0,94,0.00,,,0.00,Wunderground v.1.15,2013-01-03 09:10:00,
2013-01-03 04:15:00,31.2,29.7,30.19,N/A,-737280,0.0,-999.0,94,0.00,,,0.00,Wunderground v.1.15,2013-01-03 09:15:00,
2013-01-03 04:20:00,31.2,29.7,30.19,West,281,0.0,0.0,94,0.00,,,0.00,Wunderground v.1.15,2013-01-03 09:20:00,
2013-01-03 04:25:00,31.2,29.7,30.19,N/A,-737280,0.0,-999.0,94,0.00,,,0.00,Wunderground v.1.15,2013-01-03 09:25:00,
2013-01-03 04:30:00,31.2,29.7,30.18,West,281,0.0,0.0,94,0.00,,,0.00,Wunderground v.1.15,2013-01-03 09:30:00,
2013-01-03 04:35:00,31.2,29.9,30.19,West,281,0.0,0.0,95,0.00,,,0.00,Wunderground v.1.15,2013-01-03 09:35:00,
2013-01-03 04:40:00,31.2,29.9,30.18,West,281,0.0,0.0,95,0.00,,,0.00,Wunderground v.1.15,2013-01-03 09:40:00,
2013-01-03 04:45:00,31.2,29.9,30.18,N/A,-737280,0.0,-999.0,95,0.00,,,0.00,Wunderground v.1.15,2013-01-03 09:45:00,
2013-01-03 04:50:00,31.2,29.9,30.18,West,281,0.0,0.0,95,0.00,,,0.00,Wunderground v.1.15,2013-01-03 09:50:00,
2013-01-03 04:55:00,31.2,29.9,30.19,N/A,-737280,0.0,-999.0,95,0.00,,,0.00,Wunderground v.1.15,2013-01-03 09:55:00,
2013-01-03 05:00:00,31.2,29.9,30.19,West,281,0.0,0.0,95,0.00,,,0.00,Wunderground v.1.15,2013-01-03 10:00:00,
2013-01-03 05:05:00,31.2,29.9,30.19,N/A,-737280,0.0,-999.0,95,0.00,,,0.00,Wunderground v.1.15,2013-01-03 10:05:00,
2013-01-03 05:10:00,31.2,29.9,30.19,WNW,282,0.0,0.0,95,0.00,,,0.00,Wunderground v.1.15,2013-01-03 10:10:00,
2013-01-03 05:15:00,31.0,29.7,30.19,West,281,0.0,0.0,95,0.00,,,0.00,Wunderground v.1.15,2013-01-03 10:15:00,
2013-01-03 05:20:00,31.2,29.9,30.19,West,281,0.0,0.0,95,0.00,,,0.00,Wunderground v.1.15,2013-01-03 10:20:00,
2013-01-03 05:25:00,31.0,29.7,30.19,N/A,-737280,0.0,-999.0,95,0.00,,,0.00,Wunderground v.1.15,2013-01-03 10:25:00,
2013-01-03 05:30:00,31.0,29.7,30.19,WNW,282,0.0,0.0,95,0.00,,,0.00,Wunderground v.1.15,2013-01-03 10:30:00,
2013-01-03 05:35:00,31.0,29.7,30.20,N/A,-737280,0.0,-999.0,95,0.00,,,0.00,Wunderground v.1.15,2013-01-03 10:35:00,
2013-01-03 05:40:00,31.0,29.7,30.20,West,281,0.0,0.0,95,0.00,,,0.00,Wunderground v.1.15,2013-01-03 10:40:00,
2013-01-03 05:45:00,30.9,29.6,30.20,N/A,-737280,0.0,-999.0,95,0.00,,,0.00,Wunderground v.1.15,2013-01-03 10:45:00,
2013-01-03 05:50:00,30.9,29.6,30.20,West,281,0.0,0.0,95,0.00,,,0.00,Wunderground v.1.15,2013-01-03 10:50:00,
2013-01-03 05:55:00,31.0,29.7,30.20,N/A,-737280,0.0,-999.0,95,0.00,,,0.00,Wunderground v.1.15,2013-01-03 10:55:00,
2013-01-03 06:00:00,31.0,29.7,30.20,West,281,0.0,0.0,95,0.00,,,0.00,Wunderground v.1.15,2013-01-03 11:00:00,
2013-01-03 06:05:00,31.0,29.7,30.20,N/A,-737280,0.0,-999.0,95,0.00,,,0.00,Wunderground v.1.15,2013-01-03 11:05:00,
2013-01-03 06:10:00,31.0,29.7,30.20,West,281,0.0,0.0,95,0.00,,,0.00,Wunderground v.1.15,2013-01-03 11:10:00,
2013-01-03 06:15:00,30.9,29.6,30.21,N/A,-737280,0.0,-999.0,95,0.00,,,0.00,Wunderground v.1.15,2013-01-03 11:15:00,
2013-01-03 06:20:00,30.9,29.6,30.21,WNW,282,0.0,0.0,95,0.00,,,0.00,Wunderground v.1.15,2013-01-03 11:20:00,
2013-01-03 06:25:00,30.9,29.6,30.21,West,281,0.0,0.0,95,0.00,,,0.00,Wunderground v.1.15,2013-01-03 11:25:00,
2013-01-03 06:30:00,30.9,29.6,30.22,WNW,282,0.0,0.0,95,0.00,,,0.00,Wunderground v.1.15,2013-01-03 11:30:00,
2013-01-03 06:35:00,30.9,29.6,30.22,West,281,0.0,0.0,95,0.00,,,0.00,Wunderground v.1.15,2013-01-03 11:35:00,
2013-01-03 06:40:00,30.9,29.6,30.22,N/A,-737280,0.0,-999.0,95,0.00,,,0.00,Wunderground v.1.15,2013-01-03 11:40:00,
2013-01-03 06:45:00,30.7,29.7,30.22,West,281,0.0,0.0,96,0.00,,,0.00,Wunderground v.1.15,2013-01-03 11:45:00,
2013-01-03 06:50:00,30.7,29.7,30.22,West,281,0.0,0.0,96,0.00,,,0.00,Wunderground v.1.15,2013-01-03 11:50:00,
2013-01-03 06:55:00,30.7,29.7,30.22,West,281,0.0,0.0,96,0.00,,,0.00,Wunderground v.1.15,2013-01-03 11:55:00,
2013-01-03 07:00:00,30.7,29.7,30.23,N/A,-737280,0.0,-999.0,96,0.00,,,0.00,Wunderground v.1.15,2013-01-03 12:00:00,
2013-01-03 07:05:00,30.7,29.7,30.22,West,281,0.0,0.0,96,0.00,,,0.00,Wunderground v.1.15,2013-01-03 12:05:00,
2013-01-03 07:10:00,30.7,29.7,30.23,WNW,282,0.0,0.0,96,0.00,,,0.00,Wunderground v.1.15,2013-01-03 12:10:00,
2013-01-03 07:15:00,30.7,29.7,30.23,N/A,-737280,0.0,-999.0,96,0.00,,,0.00,Wunderground v.1.15,2013-01-03 12:15:00,
2013-01-03 07:20:00,30.7,29.7,30.23,West,281,0.0,0.0,96,0.00,,,0.00,Wunderground v.1.15,2013-01-03 12:20:00,
2013-01-03 07:25:00,30.9,29.9,30.23,N/A,-737280,0.0,-999.0,96,0.00,,,0.00,Wunderground v.1.15,2013-01-03 12:25:00,
2013-01-03 07:30:00,30.9,29.9,30.23,West,281,0.0,0.0,96,0.00,,,0.00,Wunderground v.1.15,2013-01-03 12:30:00,
2013-01-03 07:35:00,30.9,29.9,30.23,N/A,-737280,0.0,-999.0,96,0.00,,,0.00,Wunderground v.1.15,2013-01-03 12:35:00,
2013-01-03 07:40:00,30.9,29.9,30.23,West,281,0.0,0.0,96,0.00,,,0.00,Wunderground v.1.15,2013-01-03 12:40:00,
2013-01-03 07:45:00,30.9,29.9,30.24,N/A,-737280,0.0,-999.0,96,0.00,,,0.00,Wunderground v.1.15,2013-01-03 12:45:00,
2013-01-03 07:50:00,30.9,29.9,30.24,N/A,-737280,0.0,-999.0,96,0.00,,,0.00,Wunderground v.1.15,2013-01-03 12:50:00,
2013-01-03 07:55:00,30.7,29.4,30.24,West,281,0.0,0.0,95,0.00,,,0.00,Wunderground v.1.15,2013-01-03 12:55:00,
2013-01-03 08:00:00,30.7,29.4,30.24,West,281,0.0,0.0,95,0.00,,,0.00,Wunderground v.1.15,2013-01-03 13:00:00,
2013-01-03 08:05:00,30.9,29.6,30.24,WNW,282,0.0,0.0,95,0.00,,,0.00,Wunderground v.1.15,2013-01-03 13:05:00,
2013-01-03 08:10:00,30.9,29.6,30.24,West,281,0.0,0.0,95,0.00,,,0.00,Wunderground v.1.15,2013-01-03 13:10:00,
2013-01-03 08:15:00,30.9,29.6,30.24,West,281,0.0,0.0,95,0.00,,,0.00,Wunderground v.1.15,2013-01-03 13:15:00,
2013-01-03 08:20:00,30.7,29.2,30.24,WSW,239,0.0,3.0,94,0.00,,,0.00,Wunderground v.1.15,2013-01-03 13:20:00,
2013-01-03 08:25:00,30.7,28.9,30.24,WSW,239,1.0,3.0,93,0.00,,,0.00,Wunderground v.1.15,2013-01-03 13:25:00,
2013-01-03 08:30:00,30.6,28.6,30.24,N/A,-737280,0.0,-999.0,92,0.00,,,0.00,Wunderground v.1.15,2013-01-03 13:30:00,
2013-01-03 08:35:00,30.6,28.6,30.24,WSW,240,0.0,0.0,92,0.00,,,0.00,Wunderground v.1.15,2013-01-03 13:35:00,
2013-01-03 08:40:00,30.4,28.1,30.24,WSW,240,0.0,0.0,91,0.00,,,0.00,Wunderground v.1.15,2013-01-03 13:40:00,
2013-01-03 08:45:00,30.4,28.1,30.24,N/A,-737280,0.0,-999.0,91,0.00,,,0.00,Wunderground v.1.15,2013-01-03 13:45:00,
2013-01-03 08:50:00,30.4,28.1,30.24,WSW,240,0.0,0.0,91,0.00,,,0.00,Wunderground v.1.15,2013-01-03 13:50:00,
2013-01-03 08:55:00,30.4,28.1,30.24,N/A,-737280,0.0,-999.0,91,0.00,,,0.00,Wunderground v.1.15,2013-01-03 13:55:00,
2013-01-03 09:00:00,30.6,28.3,30.24,WSW,240,0.0,0.0,91,0.00,,,0.00,Wunderground v.1.15,2013-01-03 14:00:00,
2013-01-03 09:05:00,30.7,28.1,30.24,N/A,-737280,0.0,-999.0,90,0.00,,,0.00,Wunderground v.1.15,2013-01-03 14:05:00,
2013-01-03 09:10:00,30.7,28.1,30.24,WSW,240,0.0,0.0,90,0.00,,,0.00,Wunderground v.1.15,2013-01-03 14:10:00,
2013-01-03 09:15:00,30.9,28.3,30.25,N/A,-737280,0.0,-999.0,90,0.00,,,0.00,Wunderground v.1.15,2013-01-03 14:15:00,
2013-01-03 09:20:00,31.2,28.6,30.25,SW,232,0.0,0.0,90,0.00,,,0.00,Wunderground v.1.15,2013-01-03 14:20:00,
2013-01-03 09:25:00,31.2,28.6,30.25,SW,232,0.0,0.0,90,0.00,,,0.00,Wunderground v.1.15,2013-01-03 14:25:00,
2013-01-03 09:30:00,31.3,28.4,30.25,SW,232,0.0,0.0,89,0.00,,,0.00,Wunderground v.1.15,2013-01-03 14:30:00,
2013-01-03 09:35:00,31.3,28.4,30.25,N/A,-737280,0.0,-999.0,89,0.00,,,0.00,Wunderground v.1.15,2013-01-03 14:35:00,
2013-01-03 09:40:00,31.3,28.2,30.26,SW,231,0.0,0.0,88,0.00,,,0.00,Wunderground v.1.15,2013-01-03 14:40:00,
2013-01-03 09:45:00,31.5,28.4,30.26,SW,225,0.0,0.0,88,0.00,,,0.00,Wunderground v.1.15,2013-01-03 14:45:00,
2013-01-03 09:50:00,31.8,28.7,30.26,SW,222,1.0,1.0,88,0.00,,,0.00,Wunderground v.1.15,2013-01-03 14:50:00,
2013-01-03 09:55:00,31.9,28.5,30.27,WSW,251,1.0,2.0,87,0.00,,,0.00,Wunderground v.1.15,2013-01-03 14:55:00,
2013-01-03 10:00:00,32.1,28.4,30.27,SSW,211,1.0,1.0,86,0.00,,,0.00,Wunderground v.1.15,2013-01-03 15:00:00,
2013-01-03 10:05:00,32.1,28.4,30.27,SSW,203,2.0,-999.0,86,0.00,,,0.00,Wunderground v.1.15,2013-01-03 15:05:00,
2013-01-03 10:10:00,32.1,28.1,30.27,SSW,211,1.0,1.0,85,0.00,,,0.00,Wunderground v.1.15,2013-01-03 15:10:00,
2013-01-03 10:15:00,32.2,28.2,30.27,SW,225,4.0,-999.0,85,0.00,,,0.00,Wunderground v.1.15,2013-01-03 15:15:00,
2013-01-03 10:20:00,32.2,27.9,30.27,SW,230,1.0,1.0,84,0.00,,,0.00,Wunderground v.1.15,2013-01-03 15:20:00,
2013-01-03 10:25:00,32.4,28.1,30.27,SW,225,0.0,-999.0,84,0.00,,,0.00,Wunderground v.1.15,2013-01-03 15:25:00,
2013-01-03 10:30:00,32.4,27.8,30.27,SW,231,1.0,2.0,83,0.00,,,0.00,Wunderground v.1.15,2013-01-03 15:30:00,
2013-01-03 10:35:00,32.5,27.6,30.27,SW,231,0.0,2.0,82,0.00,,,0.00,Wunderground v.1.15,2013-01-03 15:35:00,
2013-01-03 10:40:00,32.5,27.3,30.27,SW,231,0.0,0.0,81,0.00,,,0.00,Wunderground v.1.15,2013-01-03 15:40:00,
2013-01-03 10:45:00,32.5,27.6,30.26,SW,225,1.0,-999.0,82,0.00,,,0.00,Wunderground v.1.15,2013-01-03 15:45:00,
2013-01-03 10:50:00,32.7,27.5,30.26,SW,231,1.0,1.0,81,0.00,,,0.00,Wunderground v.1.15,2013-01-03 15:50:00,
2013-01-03 10:55:00,32.9,28.0,30.26,SW,225,2.0,-999.0,82,0.00,,,0.00,Wunderground v.1.15,2013-01-03 15:55:00,
2013-01-03 11:00:00,33.2,28.0,30.26,SW,232,1.0,1.0,81,0.00,,,0.00,Wunderground v.1.15,2013-01-03 16:00:00,
2013-01-03 11:05:00,33.2,28.0,30.26,SW,225,1.0,-999.0,81,0.00,,,0.00,Wunderground v.1.15,2013-01-03 16:05:00,
2013-01-03 11:10:00,33.1,27.6,30.25,SW,234,2.0,2.0,80,0.00,,,0.00,Wunderground v.1.15,2013-01-03 16:10:00,
2013-01-03 11:15:00,33.1,27.3,30.26,SW,225,1.0,-999.0,79,0.00,,,0.00,Wunderground v.1.15,2013-01-03 16:15:00,
2013-01-03 11:20:00,33.1,27.0,30.26,SW,234,0.0,0.0,78,0.00,,,0.00,Wunderground v.1.15,2013-01-03 16:20:00,
2013-01-03 11:25:00,33.1,27.0,30.25,N/A,-737280,0.0,-999.0,78,0.00,,,0.00,Wunderground v.1.15,2013-01-03 16:25:00,
2013-01-03 11:30:00,33.4,26.6,30.26,SW,234,1.0,3.0,76,0.00,,,0.00,Wunderground v.1.15,2013-01-03 16:30:00,
2013-01-03 11:35:00,33.5,26.1,30.26,SW,225,3.0,-999.0,74,0.00,,,0.00,Wunderground v.1.15,2013-01-03 16:35:00,
2013-01-03 11:40:00,33.4,25.3,30.26,SW,234,3.0,3.0,72,0.00,,,0.00,Wunderground v.1.15,2013-01-03 16:40:00,
2013-01-03 11:45:00,33.5,25.1,30.26,WSW,248,3.0,-999.0,71,0.00,,,0.00,Wunderground v.1.15,2013-01-03 16:45:00,
2013-01-03 11:50:00,34.0,25.2,30.26,WSW,244,1.0,1.0,70,0.00,,,0.00,Wunderground v.1.15,2013-01-03 16:50:00,
2013-01-03 11:55:00,34.3,24.1,30.25,West,263,1.0,1.0,66,0.00,,,0.00,Wunderground v.1.15,2013-01-03 16:55:00,
2013-01-03 12:00:00,34.6,24.0,30.25,WSW,248,3.0,-999.0,65,0.00,,,0.00,Wunderground v.1.15,2013-01-03 17:00:00,
2013-01-03 12:05:00,35.0,24.0,30.25,SW,215,1.0,1.0,64,0.00,,,0.00,Wunderground v.1.15,2013-01-03 17:05:00,
2013-01-03 12:10:00,35.2,23.9,30.25,N/A,-737280,0.0,-999.0,63,0.00,,,0.00,Wunderground v.1.15,2013-01-03 17:10:00,
2013-01-03 12:15:00,36.0,23.4,30.24,SW,221,1.0,2.0,60,0.00,,,0.00,Wunderground v.1.15,2013-01-03 17:15:00,
2013-01-03 12:20:00,36.6,23.6,30.24,SW,225,3.0,-999.0,59,0.00,,,0.00,Wunderground v.1.15,2013-01-03 17:20:00,
2013-01-03 12:25:00,36.6,22.8,30.24,SSW,205,2.0,4.0,57,0.00,,,0.00,Wunderground v.1.15,2013-01-03 17:25:00,
2013-01-03 12:30:00,36.8,23.4,30.24,SW,225,2.0,-999.0,58,0.00,,,0.00,Wunderground v.1.15,2013-01-03 17:30:00,
2013-01-03 12:35:00,37.0,21.9,30.24,WSW,257,2.0,3.0,54,0.00,,,0.00,Wunderground v.1.15,2013-01-03 17:35:00,
2013-01-03 12:40:00,36.9,21.8,30.23,SW,227,2.0,2.0,54,0.00,,,0.00,Wunderground v.1.15,2013-01-03 17:40:00,
2013-01-03 12:45:00,37.2,23.4,30.24,SW,225,4.0,-999.0,57,0.00,,,0.00,Wunderground v.1.15,2013-01-03 17:45:00,
2013-01-03 12:50:00,37.5,23.6,30.23,WSW,238,3.0,4.0,57,0.00,,,0.00,Wunderground v.1.15,2013-01-03 17:50:00,
2013-01-03 12:55:00,37.6,23.7,30.23,WSW,248,3.0,-999.0,57,0.00,,,0.00,Wunderground v.1.15,2013-01-03 17:55:00,
2013-01-03 13:00:00,37.0,20.5,30.24,West,260,4.0,4.0,51,0.00,,,0.00,Wunderground v.1.15,2013-01-03 18:00:00,
2013-01-03 13:05:00,36.9,20.4,30.23,WNW,293,5.0,-999.0,51,0.00,,,0.00,Wunderground v.1.15,2013-01-03 18:05:00,
2013-01-03 13:10:00,36.9,20.4,30.23,West,265,3.0,3.0,51,0.00,,,0.00,Wunderground v.1.15,2013-01-03 18:10:00,
2013-01-03 13:15:00,36.9,20.4,30.23,N/A,-737280,0.0,-999.0,51,0.00,,,0.00,Wunderground v.1.15,2013-01-03 18:15:00,
2013-01-03 13:20:00,37.0,21.0,30.23,SW,231,1.0,1.0,52,0.00,,,0.00,Wunderground v.1.15,2013-01-03 18:20:00,
2013-01-03 13:25:00,37.3,23.0,30.23,SW,225,3.0,-999.0,56,0.00,,,0.00,Wunderground v.1.15,2013-01-03 18:25:00,
2013-01-03 13:30:00,37.6,23.7,30.22,SSW,196,2.0,5.0,57,0.00,,,0.00,Wunderground v.1.15,2013-01-03 18:30:00,
2013-01-03 13:35:00,37.8,23.5,30.22,N/A,-737280,0.0,-999.0,56,0.00,,,0.00,Wunderground v.1.15,2013-01-03 18:35:00,
2013-01-03 13:40:00,38.6,24.7,30.23,West,264,2.0,2.0,57,0.00,,,0.00,Wunderground v.1.15,2013-01-03 18:40:00,
2013-01-03 13:45:00,38.5,22.8,30.22,WSW,242,2.0,3.0,53,0.00,,,0.00,Wunderground v.1.15,2013-01-03 18:45:00,
2013-01-03 13:50:00,38.2,23.0,30.22,WSW,248,2.0,-999.0,54,0.00,,,0.00,Wunderground v.1.15,2013-01-03 18:50:00,
2013-01-03 13:55:00,38.0,22.4,30.22,West,274,2.0,4.0,53,0.00,,,0.00,Wunderground v.1.15,2013-01-03 18:55:00,
2013-01-03 14:00:00,38.0,22.8,30.22,WNW,293,1.0,-999.0,54,0.00,,,0.00,Wunderground v.1.15,2013-01-03 19:00:00,
2013-01-03 14:05:00,38.0,22.4,30.22,West,260,2.0,3.0,53,0.00,,,0.00,Wunderground v.1.15,2013-01-03 19:05:00,
2013-01-03 14:10:00,38.3,22.6,30.22,WSW,248,3.0,-999.0,53,0.00,,,0.00,Wunderground v.1.15,2013-01-03 19:10:00,
2013-01-03 14:15:00,37.8,22.2,30.22,WNW,288,3.0,6.0,53,0.00,,,0.00,Wunderground v.1.15,2013-01-03 19:15:00,
2013-01-03 14:20:00,37.5,21.9,30.22,NW,315,4.0,-999.0,53,0.00,,,0.00,Wunderground v.1.15,2013-01-03 19:20:00,
2013-01-03 14:25:00,37.5,23.2,30.22,WSW,248,3.0,-999.0,56,0.00,,,0.00,Wunderground v.1.15,2013-01-03 19:25:00,
2013-01-03 14:30:00,37.9,22.3,30.22,WSW,248,4.0,-999.0,53,0.00,,,0.00,Wunderground v.1.15,2013-01-03 19:30:00,
2013-01-03 14:35:00,38.2,22.6,30.23,West,270,3.0,-999.0,53,0.00,,,0.00,Wunderground v.1.15,2013-01-03 19:35:00,
2013-01-03 14:40:00,38.3,22.2,30.23,SW,225,1.0,-999.0,52,0.00,,,0.00,Wunderground v.1.15,2013-01-03 19:40:00,
2013-01-03 14:45:00,38.9,22.8,30.23,West,270,3.0,-999.0,52,0.00,,,0.00,Wunderground v.1.15,2013-01-03 19:45:00,
2013-01-03 14:50:00,39.1,22.0,30.23,SW,225,6.0,-999.0,50,0.00,,,0.00,Wunderground v.1.15,2013-01-03 19:50:00,
2013-01-03 14:55:00,38.9,21.3,30.24,SW,225,4.0,-999.0,49,0.00,,,0.00,Wunderground v.1.15,2013-01-03 19:55:00,
2013-01-03 15:00:00,39.1,21.5,30.24,WSW,246,4.0,4.0,49,0.00,,,0.00,Wunderground v.1.15,2013-01-03 20:00:00,
2013-01-03 15:05:00,38.8,20.8,30.24,WSW,248,2.0,-999.0,48,0.00,,,0.00,Wunderground v.1.15,2013-01-03 20:05:00,
2013-01-03 15:10:00,38.6,20.6,30.24,SW,231,2.0,2.0,48,0.00,,,0.00,Wunderground v.1.15,2013-01-03 20:10:00,
2013-01-03 15:15:00,38.8,20.3,30.24,SW,225,1.0,-999.0,47,0.00,,,0.00,Wunderground v.1.15,2013-01-03 20:15:00,
2013-01-03 15:20:00,38.8,20.3,30.24,West,263,1.0,1.0,47,0.00,,,0.00,Wunderground v.1.15,2013-01-03 20:20:00,
2013-01-03 15:25:00,38.9,20.4,30.24,N/A,-737280,0.0,-999.0,47,0.00,,,0.00,Wunderground v.1.15,2013-01-03 20:25:00,
2013-01-03 15:30:00,39.3,21.7,30.24,SW,236,0.0,2.0,49,0.00,,,0.00,Wunderground v.1.15,2013-01-03 20:30:00,
2013-01-03 15:35:00,39.3,21.2,30.24,NW,315,1.0,-999.0,48,0.00,,,0.00,Wunderground v.1.15,2013-01-03 20:35:00,
2013-01-03 15:40:00,38.9,21.3,30.24,West,279,1.0,1.0,49,0.00,,,0.00,Wunderground v.1.15,2013-01-03 20:40:00,
2013-01-03 15:45:00,39.1,21.5,30.25,WNW,287,1.0,1.0,49,0.00,,,0.00,Wunderground v.1.15,2013-01-03 20:45:00,
2013-01-03 15:50:00,39.2,21.1,30.25,NW,309,0.0,0.0,48,0.00,,,0.00,Wunderground v.1.15,2013-01-03 20:50:00,
2013-01-03 15:55:00,39.1,21.5,30.25,WNW,293,0.0,-999.0,49,0.00,,,0.00,Wunderground v.1.15,2013-01-03 20:55:00,
2013-01-03 16:00:00,38.3,21.3,30.25,WNW,284,1.0,2.0,50,0.00,,,0.00,Wunderground v.1.15,2013-01-03 21:00:00,
2013-01-03 16:05:00,38.0,21.9,30.26,West,270,1.0,-999.0,52,0.00,,,0.00,Wunderground v.1.15,2013-01-03 21:05:00,
2013-01-03 16:10:00,37.9,21.8,30.26,West,263,1.0,3.0,52,0.00,,,0.00,Wunderground v.1.15,2013-01-03 21:10:00,
2013-01-03 16:15:00,37.8,21.7,30.26,N/A,-737280,0.0,-999.0,52,0.00,,,0.00,Wunderground v.1.15,2013-01-03 21:15:00,
2013-01-03 16:20:00,37.8,21.7,30.26,WSW,253,2.0,2.0,52,0.00,,,0.00,Wunderground v.1.15,2013-01-03 21:20:00,
2013-01-03 16:25:00,37.8,21.7,30.26,SW,225,1.0,-999.0,52,0.00,,,0.00,Wunderground v.1.15,2013-01-03 21:25:00,
2013-01-03 16:30:00,37.6,22.0,30.26,WSW,237,1.0,1.0,53,0.00,,,0.00,Wunderground v.1.15,2013-01-03 21:30:00,
2013-01-03 16:35:00,37.3,21.3,30.27,N/A,-737280,0.0,-999.0,52,0.00,,,0.00,Wunderground v.1.15,2013-01-03 21:35:00,
2013-01-03 16:40:00,37.2,21.6,30.27,WNW,302,1.0,2.0,53,0.00,,,0.00,Wunderground v.1.15,2013-01-03 21:40:00,
2013-01-03 16:45:00,37.0,21.9,30.28,SW,232,0.0,4.0,54,0.00,,,0.00,Wunderground v.1.15,2013-01-03 21:45:00,
2013-01-03 16:50:00,36.9,21.8,30.28,SW,225,0.0,-999.0,54,0.00,,,0.00,Wunderground v.1.15,2013-01-03 21:50:00,
2013-01-03 16:55:00,36.8,21.7,30.28,WSW,237,1.0,1.0,54,0.00,,,0.00,Wunderground v.1.15,2013-01-03 21:55:00,
2013-01-03 17:00:00,36.2,21.6,30.28,SW,222,0.0,0.0,55,0.00,,,0.00,Wunderground v.1.15,2013-01-03 22:00:00,
2013-01-03 17:05:00,35.9,21.7,30.28,N/A,-737280,0.0,-999.0,56,0.00,,,0.00,Wunderground v.1.15,2013-01-03 22:05:00,
2013-01-03 17:10:00,35.5,21.3,30.28,SW,221,0.0,0.0,56,0.00,,,0.00,Wunderground v.1.15,2013-01-03 22:10:00,
2013-01-03 17:15:00,35.3,21.6,30.28,SW,222,0.0,0.0,57,0.00,,,0.00,Wunderground v.1.15,2013-01-03 22:15:00,
2013-01-03 17:20:00,35.0,21.3,30.28,SW,225,2.0,-999.0,57,0.00,,,0.00,Wunderground v.1.15,2013-01-03 22:20:00,
2013-01-03 17:25:00,34.6,21.7,30.28,SW,232,1.0,3.0,59,0.00,,,0.00,Wunderground v.1.15,2013-01-03 22:25:00,
2013-01-03 17:30:00,34.1,22.0,30.28,SW,232,0.0,0.0,61,0.00,,,0.00,Wunderground v.1.15,2013-01-03 22:30:00,
2013-01-03 17:35:00,33.7,22.1,30.28,N/A,-737280,0.0,-999.0,62,0.00,,,0.00,Wunderground v.1.15,2013-01-03 22:35:00,
2013-01-03 17:40:00,33.2,21.6,30.28,SW,232,0.0,0.0,62,0.00,,,0.00,Wunderground v.1.15,2013-01-03 22:40:00,
2013-01-03 17:45:00,32.7,21.5,30.28,SW,232,0.0,0.0,63,0.00,,,0.00,Wunderground v.1.15,2013-01-03 22:45:00,
2013-01-03 17:50:00,32.4,22.3,30.28,SW,232,0.0,0.0,66,0.00,,,0.00,Wunderground v.1.15,2013-01-03 22:50:00,
2013-01-03 17:55:00,31.9,21.8,30.28,N/A,-737280,0.0,-999.0,66,0.00,,,0.00,Wunderground v.1.15,2013-01-03 22:55:00,
2013-01-03 18:00:00,31.5,21.4,30.28,SW,232,0.0,0.0,66,0.00,,,0.00,Wunderground v.1.15,2013-01-03 23:00:00,
2013-01-03 18:05:00,31.0,21.3,30.29,N/A,-737280,0.0,-999.0,67,0.00,,,0.00,Wunderground v.1.15,2013-01-03 23:05:00,
2013-01-03 18:10:00,30.3,21.0,30.29,SW,232,0.0,0.0,68,0.00,,,0.00,Wunderground v.1.15,2013-01-03 23:10:00,
2013-01-03 18:15:00,29.8,20.5,30.29,N/A,-737280,0.0,-999.0,68,0.00,,,0.00,Wunderground v.1.15,2013-01-03 23:15:00,
2013-01-03 18:20:00,29.3,20.0,30.29,SW,232,0.0,0.0,68,0.00,,,0.00,Wunderground v.1.15,2013-01-03 23:20:00,
2013-01-03 18:25:00,29.0,20.4,30.29,N/A,-737280,0.0,-999.0,70,0.00,,,0.00,Wunderground v.1.15,2013-01-03 23:25:00,
2013-01-03 18:30:00,28.5,20.6,30.29,SW,232,0.0,0.0,72,0.00,,,0.00,Wunderground v.1.15,2013-01-03 23:30:00,
2013-01-03 18:35:00,28.2,20.3,30.30,N/A,-737280,0.0,-999.0,72,0.00,,,0.00,Wunderground v.1.15,2013-01-03 23:35:00,
2013-01-03 18:40:00,27.8,20.3,30.30,SW,232,0.0,0.0,73,0.00,,,0.00,Wunderground v.1.15,2013-01-03 23:40:00,
2013-01-03 18:45:00,27.5,20.3,30.30,SW,232,0.0,0.0,74,0.00,,,0.00,Wunderground v.1.15,2013-01-03 23:45:00,
2013-01-03 18:50:00,27.3,20.1,30.30,N/A,-737280,0.0,-999.0,74,0.00,,,0.00,Wunderground v.1.15,2013-01-03 23:50:00,
2013-01-03 18:55:00,27.2,20.3,30.30,SW,232,0.0,0.0,75,0.00,,,0.00,Wunderground v.1.15,2013-01-03 23:55:00,
2013-01-03 19:00:00,27.0,20.4,30.30,SW,232,0.0,0.0,76,0.00,,,0.00,Wunderground v.1.15,2013-01-04 00:00:00,
2013-01-03 19:05:00,27.0,20.4,30.30,N/A,-737280,0.0,-999.0,76,0.00,,,0.00,Wunderground v.1.15,2013-01-04 00:05:00,
2013-01-03 19:10:00,26.9,20.3,30.30,SW,232,0.0,0.0,76,0.00,,,0.00,Wunderground v.1.15,2013-01-04 00:10:00,
2013-01-03 19:15:00,26.7,20.5,30.30,N/A,-737280,0.0,-999.0,77,0.00,,,0.00,Wunderground v.1.15,2013-01-04 00:15:00,
2013-01-03 19:20:00,26.9,20.7,30.30,SW,232,0.0,0.0,77,0.00,,,0.00,Wunderground v.1.15,2013-01-04 00:20:00,
2013-01-03 19:25:00,26.7,20.8,30.31,SW,232,0.0,0.0,78,0.00,,,0.00,Wunderground v.1.15,2013-01-04 00:25:00,
2013-01-03 19:30:00,26.6,20.7,30.31,N/A,-737280,0.0,-999.0,78,0.00,,,0.00,Wunderground v.1.15,2013-01-04 00:30:00,
2013-01-03 19:35:00,26.3,20.7,30.31,SW,232,0.0,0.0,79,0.00,,,0.00,Wunderground v.1.15,2013-01-04 00:35:00,
2013-01-03 19:40:00,26.1,20.5,30.31,N/A,-737280,0.0,-999.0,79,0.00,,,0.00,Wunderground v.1.15,2013-01-04 00:40:00,
2013-01-03 19:45:00,25.8,20.5,30.31,SW,232,0.0,0.0,80,0.00,,,0.00,Wunderground v.1.15,2013-01-04 00:45:00,
2013-01-03 19:50:00,25.7,20.4,30.31,SW,232,0.0,0.0,80,0.00,,,0.00,Wunderground v.1.15,2013-01-04 00:50:00,
2013-01-03 19:55:00,25.6,20.6,30.31,N/A,-737280,0.0,-999.0,81,0.00,,,0.00,Wunderground v.1.15,2013-01-04 00:55:00,
2013-01-03 20:00:00,25.4,20.1,30.31,SW,232,0.0,0.0,80,0.00,,,0.00,Wunderground v.1.15,2013-01-04 01:00:00,
2013-01-03 20:05:00,25.1,20.1,30.31,SW,232,0.0,0.0,81,0.00,,,0.00,Wunderground v.1.15,2013-01-04 01:05:00,
2013-01-03 20:10:00,25.1,20.4,30.31,SW,232,0.0,0.0,82,0.00,,,0.00,Wunderground v.1.15,2013-01-04 01:10:00,
2013-01-03 20:15:00,25.1,20.1,30.32,SW,232,0.0,0.0,81,0.00,,,0.00,Wunderground v.1.15,2013-01-04 01:15:00,
2013-01-03 20:20:00,25.0,20.3,30.32,SW,232,0.0,0.0,82,0.00,,,0.00,Wunderground v.1.15,2013-01-04 01:20:00,
2013-01-03 20:25:00,25.0,20.3,30.32,N/A,-737280,0.0,-999.0,82,0.00,,,0.00,Wunderground v.1.15,2013-01-04 01:25:00,
2013-01-03 20:30:00,24.8,19.8,30.32,SW,232,0.0,0.0,81,0.00,,,0.00,Wunderground v.1.15,2013-01-04 01:30:00,
2013-01-03 20:35:00,24.8,20.1,30.32,N/A,-737280,0.0,-999.0,82,0.00,,,0.00,Wunderground v.1.15,2013-01-04 01:35:00,
2013-01-03 20:40:00,25.1,19.8,30.31,SW,232,0.0,0.0,80,0.00,,,0.00,Wunderground v.1.15,2013-01-04 01:40:00,
2013-01-03 20:45:00,25.3,20.0,30.31,N/A,-737280,0.0,-999.0,80,0.00,,,0.00,Wunderground v.1.15,2013-01-04 01:45:00,
2013-01-03 20:50:00,25.3,20.0,30.31,SW,232,0.0,0.0,80,0.00,,,0.00,Wunderground v.1.15,2013-01-04 01:50:00,
2013-01-03 20:55:00,25.6,20.0,30.31,SW,232,0.0,0.0,79,0.00,,,0.00,Wunderground v.1.15,2013-01-04 01:55:00,
2013-01-03 21:00:00,25.6,20.0,30.32,SW,232,0.0,0.0,79,0.00,,,0.00,Wunderground v.1.15,2013-01-04 02:00:00,
2013-01-03 21:05:00,25.7,20.1,30.32,N/A,-737280,0.0,-999.0,79,0.00,,,0.00,Wunderground v.1.15,2013-01-04 02:05:00,
2013-01-03 21:10:00,25.8,19.9,30.32,SW,232,0.0,0.0,78,0.00,,,0.00,Wunderground v.1.15,2013-01-04 02:10:00,
2013-01-03 21:15:00,25.7,20.1,30.32,SW,232,0.0,0.0,79,0.00,,,0.00,Wunderground v.1.15,2013-01-04 02:15:00,
2013-01-03 21:20:00,25.6,20.0,30.32,N/A,-737280,0.0,-999.0,79,0.00,,,0.00,Wunderground v.1.15,2013-01-04 02:20:00,
2013-01-03 21:25:00,25.8,20.2,30.32,SW,232,0.0,0.0,79,0.00,,,0.00,Wunderground v.1.15,2013-01-04 02:25:00,
2013-01-03 21:30:00,26.0,20.1,30.32,SW,232,0.0,0.0,78,0.00,,,0.00,Wunderground v.1.15,2013-01-04 02:30:00,
2013-01-03 21:35:00,25.7,20.1,30.32,N/A,-737280,0.0,-999.0,79,0.00,,,0.00,Wunderground v.1.15,2013-01-04 02:35:00,
2013-01-03 21:40:00,25.3,19.7,30.33,SW,232,0.0,0.0,79,0.00,,,0.00,Wunderground v.1.15,2013-01-04 02:40:00,
2013-01-03 21:45:00,25.0,19.7,30.33,N/A,-737280,0.0,-999.0,80,0.00,,,0.00,Wunderground v.1.15,2013-01-04 02:45:00,
2013-01-03 21:50:00,24.4,19.4,30.33,SW,232,0.0,0.0,81,0.00,,,0.00,Wunderground v.1.15,2013-01-04 02:50:00,
2013-01-03 21:55:00,24.1,19.1,30.33,N/A,-737280,0.0,-999.0,81,0.00,,,0.00,Wunderground v.1.15,2013-01-04 02:55:00,
2013-01-03 22:00:00,23.8,19.1,30.33,SW,232,0.0,0.0,82,0.00,,,0.00,Wunderground v.1.15,2013-01-04 03:00:00,
2013-01-03 22:05:00,23.6,18.9,30.33,N/A,-737280,0.0,-999.0,82,0.00,,,0.00,Wunderground v.1.15,2013-01-04 03:05:00,
2013-01-03 22:10:00,23.3,18.9,30.33,SW,232,0.0,0.0,83,0.00,,,0.00,Wunderground v.1.15,2013-01-04 03:10:00,
2013-01-03 22:15:00,23.2,18.8,30.33,SW,232,0.0,0.0,83,0.00,,,0.00,Wunderground v.1.15,2013-01-04 03:15:00,
2013-01-03 22:20:00,23.0,18.6,30.33,SW,232,0.0,0.0,83,0.00,,,0.00,Wunderground v.1.15,2013-01-04 03:20:00,
2013-01-03 22:25:00,22.7,18.6,30.33,SW,232,0.0,0.0,84,0.00,,,0.00,Wunderground v.1.15,2013-01-04 03:25:00,
2013-01-03 22:30:00,22.7,18.9,30.34,SW,232,0.0,0.0,85,0.00,,,0.00,Wunderground v.1.15,2013-01-04 03:30:00,
2013-01-03 22:35:00,22.9,19.1,30.34,N/A,-737280,0.0,-999.0,85,0.00,,,0.00,Wunderground v.1.15,2013-01-04 03:35:00,
2013-01-03 22:40:00,22.9,19.1,30.34,SW,232,0.0,0.0,85,0.00,,,0.00,Wunderground v.1.15,2013-01-04 03:40:00,
2013-01-03 22:45:00,22.9,19.1,30.34,SW,232,0.0,0.0,85,0.00,,,0.00,Wunderground v.1.15,2013-01-04 03:45:00,
2013-01-03 22:50:00,22.9,18.8,30.34,SW,232,0.0,0.0,84,0.00,,,0.00,Wunderground v.1.15,2013-01-04 03:50:00,
2013-01-03 22:55:00,22.9,19.1,30.34,SW,232,0.0,0.0,85,0.00,,,0.00,Wunderground v.1.15,2013-01-04 03:55:00,
2013-01-03 23:00:00,22.7,18.9,30.33,N/A,-737280,0.0,-999.0,85,0.00,,,0.00,Wunderground v.1.15,2013-01-04 04:00:00,
2013-01-03 23:05:00,22.5,18.9,30.33,SW,232,0.0,0.0,86,0.00,,,0.00,Wunderground v.1.15,2013-01-04 04:05:00,
2013-01-03 23:10:00,22.5,18.7,30.34,SW,232,0.0,0.0,85,0.00,,,0.00,Wunderground v.1.15,2013-01-04 04:10:00,
2013-01-03 23:15:00,22.5,18.7,30.34,SW,232,0.0,0.0,85,0.00,,,0.00,Wunderground v.1.15,2013-01-04 04:15:00,
2013-01-03 23:20:00,22.5,18.7,30.34,N/A,-737280,0.0,-999.0,85,0.00,,,0.00,Wunderground v.1.15,2013-01-04 04:20:00,
2013-01-03 23:25:00,22.5,18.7,30.34,SW,232,0.0,0.0,85,0.00,,,0.00,Wunderground v.1.15,2013-01-04 04:25:00,
2013-01-03 23:35:00,22.4,18.6,30.34,SW,232,0.0,0.0,85,0.00,,,0.00,Wunderground v.1.15,2013-01-04 04:35:00,
2013-01-03 23:40:00,22.4,18.6,30.34,SW,232,0.0,0.0,85,0.00,,,0.00,Wunderground v.1.15,2013-01-04 04:40:00,
2013-01-03 23:45:00,22.2,18.4,30.34,N/A,-737280,0.0,-999.0,85,0.00,,,0.00,Wunderground v.1.15,2013-01-04 04:45:00,
2013-01-03 23:50:00,22.2,18.4,30.34,N/A,-737280,0.0,-999.0,85,0.00,,,0.00,Wunderground v.1.15,2013-01-04 04:50:00,
2013-01-03 23:51:00,22.1,18.3,30.34,SW,232,0.0,0.0,85,0.00,,,0.00,Wunderground v.1.15,2013-01-04 04:51:00,
2013-01-03 23:55:00,22.2,18.7,30.34,N/A,-737280,0.0,-999.0,86,0.00,,,0.00,Wunderground v.1.15,2013-01-04 04:55:00,